Theta_e
316 315 315 317 318 320 322 322 321 322 322 317 317 318 317 318 318 319 319 320 322 324 322 324 330 330 326 325 325 324 324 327 325 322 325 329 330 329 331 331 329 331 332 333 333 328 329 336 336 336 335 332 330 322 318 316 313 311 311 312 311 310 309 314 321 321 326 328 329 330 330 331 328 323 319 314 312 314 316 319 322 321 320 318 317 316 312 311 311 312 312 311 311 311 311 311 311
316 315 316 318 318 320 323 323 322 320 318 316 317 319 317 318 319 320 321 321 322 321 322 325 330 328 324 322 323 323 326 326 324 326 328 329 329 330 331 331 330 331 332 333 330 329 334 337 336 336 335 333 329 321 318 316 314 312 312 312 311 311 311 317 323 322 327 329 329 330 330 331 327 324 322 317 312 315 319 320 323 325 324 321 322 323 317 311 310 311 311 311 311 311 311 311 311
315 315 316 319 320 320 323 322 321 318 316 315 317 319 317 318 320 320 320 320 319 319 321 325 329 327 322 322 322 323 326 325 324 328 329 329 330 329 330 330 331 331 333 331 327 331 336 336 336 336 334 332 327 320 318 316 315 313 312 313 312 313 315 320 323 321 324 325 326 328 329 328 325 324 322 319 316 317 320 323 325 328 329 325 324 326 321 313 309 310 311 311 312 311 312 311 310
315 316 317 320 322 322 323 322 322 318 316 315 316 318 318 319 320 319 319 319 318 318 322 326 328 326 322 322 323 322 325 326 326 329 330 330 331 328 328 330 330 331 331 328 328 334 336 335 335 334 333 330 325 321 319 317 316 315 313 313 313 313 315 320 322 320 322 325 326 328 329 326 324 323 322 321 319 316 319 324 325 326 327 325 324 325 322 313 308 311 311 310 312 312 312 311 310
314 316 318 321 324 323 323 321 321 319 317 316 316 318 318 319 319 318 319 319 319 318 321 326 327 325 324 323 323 324 325 327 326 328 330 329 329 328 328 329 329 330 328 325 330 335 335 335 334 333 332 328 324 321 319 318 317 316 314 313 313 313 314 317 319 320 324 329 330 329 329 326 322 321 321 320 316 315 319 322 324 324 326 326 325 323 318 311 308 311 310 309 311 311 311 311 311
315 318 319 320 322 322 322 320 319 319 318 319 318 317 317 317 318 320 320 320 318 318 320 324 324 324 326 325 323 324 326 328 328 327 329 329 328 328 327 329 329 329 327 325 330 335 335 334 333 333 331 328 324 322 319 318 317 316 315 313 313 313 313 313 315 321 324 327 329 329 328 323 320 319 318 316 314 317 320 321 323 322 324 328 325 322 318 312 312 312 310 309 309 310 311 311 312
317 320 319 320 321 321 322 320 319 320 318 317 317 317 316 317 318 321 321 320 318 317 319 321 321 323 325 325 324 324 324 327 329 328 329 329 328 328 327 328 329 329 328 326 330 334 335 333 333 333 331 329 325 323 320 318 318 317 315 314 314 313 314 312 314 321 323 325 326 326 325 319 316 316 315 313 313 317 317 319 322 321 323 325 322 320 318 315 319 319 317 315 311 310 311 312 312
318 320 320 321 321 321 322 320 320 320 316 314 315 315 316 317 318 322 321 320 319 318 318 318 320 322 321 323 327 326 324 325 328 329 328 328 328 327 327 327 328 328 328 327 328 332 334 332 332 332 331 329 325 323 321 319 319 317 316 314 314 313 314 314 313 317 318 320 319 319 320 315 312 313 314 315 316 314 313 318 321 320 321 321 319 319 319 318 321 320 318 317 312 311 312 313 314
318 320 320 321 321 321 320 319 318 317 316 314 314 315 315 315 317 321 322 319 318 318 318 319 320 320 320 323 326 325 325 327 328 329 328 328 328 327 327 327 328 327 328 328 327 330 333 332 332 332 331 329 325 324 321 320 319 318 317 315 314 313 313 314 314 314 313 314 313 312 312 310 308 310 311 313 315 311 312 318 319 318 318 320 321 322 320 318 318 316 315 314 312 312 313 314 315
319 319 321 322 320 319 318 318 318 317 316 315 315 315 315 315 316 320 322 319 317 317 318 320 319 317 320 323 325 324 326 329 328 330 329 329 328 327 327 328 329 328 328 328 326 329 332 332 331 331 330 328 325 324 322 320 320 320 319 317 315 314 314 314 314 314 314 313 311 309 308 307 307 307 308 308 311 311 312 317 319 321 321 322 323 321 317 315 315 314 314 313 312 312 313 314 315
320 319 320 321 319 318 317 317 318 317 316 316 316 315 315 315 316 319 320 318 316 317 318 319 318 318 321 323 325 322 324 328 329 330 329 329 328 327 328 328 329 328 328 327 325 328 330 331 331 329 328 328 326 324 322 321 320 320 320 319 317 315 315 315 316 315 314 314 312 310 308 307 306 306 307 306 308 311 313 317 319 321 321 321 320 318 315 314 314 313 313 313 312 312 313 315 316
320 321 321 320 319 318 318 318 318 318 318 317 318 315 314 315 317 319 319 318 316 317 319 319 318 320 321 322 323 319 321 329 330 331 330 329 329 328 329 328 329 328 328 326 324 328 329 330 331 330 328 327 325 324 322 322 321 321 321 321 320 318 317 316 317 316 315 314 313 311 309 308 307 307 307 307 310 313 317 319 320 320 320 319 319 318 315 314 313 313 313 313 313 312 313 315 317
320 322 322 320 319 319 319 318 317 318 319 319 318 316 314 315 317 319 318 317 317 318 319 318 317 318 320 321 321 319 321 328 330 331 330 329 330 329 329 328 328 328 328 326 325 328 329 330 331 331 329 327 326 325 324 324 322 321 321 321 321 320 319 318 318 318 317 316 315 313 312 310 309 309 309 310 313 316 319 321 321 320 320 320 320 319 317 315 314 314 314 313 313 313 313 315 318
319 321 322 319 317 318 319 319 318 317 318 318 316 315 314 316 317 317 317 317 317 318 318 317 317 318 319 319 321 321 321 326 330 331 329 329 329 329 329 328 328 327 327 325 325 327 329 330 331 331 330 329 330 328 326 326 323 322 321 321 322 321 321 320 319 319 318 317 316 315 314 313 313 313 313 314 316 318 320 321 322 321 321 321 321 321 320 318 316 315 315 314 314 314 314 315 317
318 319 321 320 317 318 318 318 319 317 317 318 315 314 314 315 316 316 317 317 317 317 316 317 317 318 318 318 321 322 319 323 329 330 330 330 329 329 329 328 328 326 325 324 324 327 329 329 330 331 331 331 332 331 329 328 326 323 321 321 322 322 322 322 321 320 319 319 318 317 316 316 316 316 316 317 319 319 320 322 322 322 322 322 322 322 322 321 320 318 316 315 314 314 315 315 315
317 319 321 320 318 318 318 317 317 317 316 317 315 314 316 315 315 316 315 316 316 316 316 316 317 317 317 318 319 318 316 321 328 330 330 330 330 330 330 329 328 325 324 324 324 326 329 329 329 330 330 330 331 332 332 330 328 326 324 322 321 322 322 322 323 322 321 320 319 318 317 317 317 317 318 318 319 321 321 322 323 322 322 322 323 323 323 323 322 321 319 316 315 314 315 315 314
318 319 321 319 319 319 318 317 317 317 316 315 313 314 317 316 314 315 315 315 315 315 315 316 317 317 317 317 317 316 315 320 327 330 330 331 331 330 331 330 329 326 324 323 324 326 329 330 329 328 328 328 329 330 331 331 330 328 327 325 321 321 321 322 323 323 323 321 321 320 319 318 318 318 318 318 319 320 321 322 322 322 323 323 323 323 323 323 323 323 322 319 316 314 314 315 314
319 320 320 318 319 319 319 318 317 317 317 315 313 314 318 316 314 314 314 315 314 315 315 315 316 317 316 317 317 317 314 318 325 328 329 331 331 331 331 331 330 328 325 324 324 325 327 329 329 329 328 328 327 328 330 331 330 329 330 329 325 322 320 321 322 323 323 323 323 322 321 320 319 318 318 319 319 320 321 321 322 322 322 322 322 322 323 323 323 323 323 322 319 316 314 315 315
319 320 319 319 320 318 317 317 316 316 316 315 313 314 317 317 315 314 315 316 314 315 315 315 315 316 316 316 317 317 314 315 322 326 327 328 329 330 330 331 331 329 327 325 324 324 325 327 328 328 328 328 328 327 327 328 328 328 330 331 329 326 322 321 321 322 323 323 323 323 323 322 321 320 319 319 319 319 320 320 321 321 321 322 322 322 322 322 323 323 323 323 322 319 316 315 315
318 318 319 320 320 317 315 315 315 314 315 315 314 313 315 315 314 314 316 316 315 316 317 316 315 316 316 315 316 317 316 314 318 324 325 325 326 327 327 327 327 327 327 326 325 324 324 325 325 326 327 327 327 327 326 326 326 327 328 330 330 328 325 323 321 321 322 323 323 323 323 323 323 322 321 320 319 319 319 320 320 320 321 321 321 321 321 322 322 322 322 323 323 321 319 316 315
317 318 319 319 319 317 315 314 314 313 313 314 313 313 314 314 314 315 316 315 316 317 317 316 316 316 315 315 315 316 316 315 317 321 324 323 324 325 326 326 326 327 327 327 326 324 324 324 324 325 325 326 326 326 326 327 326 327 327 327 328 328 327 326 324 323 322 322 323 323 324 324 324 324 323 322 321 320 320 319 319 319 320 320 320 320 321 321 321 321 321 322 322 323 321 319 316
317 316 316 316 317 317 315 313 313 313 313 313 313 314 314 313 313 314 315 316 316 317 316 315 316 316 315 315 315 316 316 316 316 318 320 321 321 322 324 326 327 328 328 326 326 325 325 325 325 325 325 326 327 328 328 328 329 329 328 327 326 327 327 327 327 326 324 324 324 324 324 324 324 324 324 324 323 322 321 321 320 320 320 319 320 320 320 320 320 320 321 321 321 322 322 322 320
317 315 312 313 314 315 314 312 313 313 312 313 313 314 314 313 314 313 314 316 316 315 314 314 315 315 315 315 315 315 316 316 316 316 317 318 318 318 319 322 324 325 325 324 325 325 325 325 325 325 326 327 328 329 330 330 330 330 330 328 326 326 327 327 327 327 327 327 326 326 325 325 324 324 324 324 324 324 324 323 322 321 321 320 320 320 320 320 320 320 320 320 320 321 322 322 322
317 315 312 312 312 313 313 312 313 312 313 313 313 314 313 314 314 312 313 316 316 315 315 314 314 314 315 315 315 315 315 315 316 316 315 316 317 317 316 317 320 321 321 321 323 323 324 324 325 325 326 327 328 329 329 328 329 330 330 329 328 327 327 327 327 328 329 328 328 328 327 327 326 325 325 325 325 325 325 325 324 324 323 322 321 321 321 321 321 321 320 320 320 320 321 322 322
316 315 312 311 311 311 312 312 312 311 312 312 313 314 313 313 313 312 314 315 315 315 315 314 314 314 314 314 315 315 315 315 316 317 316 316 316 316 316 315 316 317 317 318 320 320 321 323 324 325 325 326 327 327 327 327 327 329 329 329 328 328 328 328 328 328 329 329 329 329 329 328 328 328 327 326 326 326 326 326 326 326 325 324 323 323 323 322 322 322 322 322 321 321 321 321 321
315 313 312 311 310 310 311 311 311 311 311 312 313 313 312 312 311 313 315 315 314 314 314 314 315 314 314 314 314 315 315 315 315 316 316 316 316 315 315 315 315 314 314 316 317 318 319 321 323 323 323 324 326 326 326 326 325 326 328 327 327 328 328 329 329 329 329 330 330 330 330 330 329 329 329 328 328 328 328 328 328 327 327 326 325 325 324 324 323 323 323 323 323 322 322 321 321
313 311 311 311 310 310 310 311 310 311 311 312 314 313 312 311 312 315 315 314 314 314 314 314 314 314 314 314 314 314 315 315 315 315 316 316 316 315 315 315 314 314 314 314 315 316 317 318 320 321 322 323 324 325 325 325 324 323 325 327 327 326 326 328 329 329 330 330 330 331 331 331 330 330 329 329 329 329 329 329 329 328 328 328 327 326 326 326 325 324 324 324 324 324 324 323 322
312 312 312 311 311 311 311 311 310 311 312 312 313 312 311 310 312 315 315 314 314 314 314 314 314 314 314 314 314 314 315 315 315 315 315 315 315 314 314 314 314 314 314 314 314 314 315 316 317 319 320 320 321 322 322 323 323 322 323 325 326 326 325 327 328 328 329 329 330 331 331 331 331 331 330 330 330 329 329 330 330 329 329 328 328 327 327 327 327 326 325 325 325 324 325 325 324
312 313 314 312 312 313 311 311 311 312 313 312 312 313 313 312 313 315 314 314 314 314 314 314 314 314 314 314 314 314 315 315 315 315 315 315 314 314 314 314 313 314 314 314 314 314 315 315 315 316 317 318 318 318 319 319 319 320 320 321 323 324 324 325 327 327 327 328 329 329 331 331 332 332 331 331 330 330 330 330 330 329 328 328 328 327 326 327 327 327 327 327 326 325 325 325 325
312 312 313 313 313 314 311 310 311 311 312 311 311 312 314 315 314 314 313 313 314 313 314 314 314 314 314 314 314 314 315 315 315 314 314 315 315 315 315 314 314 314 314 314 314 314 315 315 315 315 315 316 315 315 316 316 316 317 317 318 319 321 322 322 324 326 327 326 326 327 329 330 331 331 331 331 330 330 330 329 330 329 328 327 328 327 327 326 325 326 326 326 326 326 326 325 325
312 312 313 314 314 313 310 309 311 312 312 311 311 312 314 314 312 311 312 313 313 313 313 313 314 314 314 314 314 314 315 315 315 315 315 314 315 315 315 315 315 314 314 314 314 314 314 315 315 315 315 315 315 315 315 314 315 315 315 316 316 318 320 320 321 323 326 326 325 324 326 328 330 330 330 331 330 330 330 330 330 330 329 328 326 326 327 326 325 325 325 325 325 325 325 325 325
312 312 313 314 313 313 311 309 310 312 312 311 311 312 314 314 312 310 311 311 312 313 313 313 313 314 314 314 314 314 315 315 315 315 315 315 315 315 315 315 315 315 315 314 314 314 314 314 314 315 315 315 315 315 315 315 315 315 315 315 315 315 317 318 318 320 322 323 323 322 323 324 326 327 328 329 331 330 330 331 331 330 330 329 326 325 326 326 326 325 325 325 326 325 324 324 325
312 313 315 314 313 313 312 310 309 310 312 311 311 313 313 314 313 311 311 312 312 313 313 313 313 313 313 314 314 314 315 315 315 315 315 315 315 315 315 315 315 315 315 315 315 315 314 314 314 314 315 314 315 315 315 315 315 315 314 314 315 315 315 316 317 321 323 323 323 321 320 321 321 322 325 327 327 326 327 327 327 327 326 326 325 323 325 325 324 325 324 325 325 325 324 324 325
313 313 314 313 312 312 312 312 310 309 311 313 311 311 313 314 313 312 312 313 312 312 314 314 314 314 313 313 314 314 314 314 315 315 315 315 315 315 315 315 315 315 315 315 315 315 315 315 315 315 314 314 314 314 314 314 314 314 314 314 314 314 315 315 316 320 322 322 323 323 321 320 320 322 324 326 325 326 327 324 326 329 327 328 326 324 326 326 326 326 325 324 324 324 323 324 325
313 313 313 312 311 311 312 312 310 309 311 313 312 312 313 313 313 313 313 312 312 312 313 314 314 314 314 314 314 314 315 314 315 315 315 315 315 315 315 315 315 315 315 315 315 315 315 315 315 315 315 315 314 315 314 314 314 314 314 314 314 314 314 314 316 318 317 317 320 321 321 320 319 320 322 323 325 330 329 324 325 329 327 327 326 324 325 326 327 327 327 326 324 324 324 324 325
314 314 314 313 312 311 311 311 308 309 312 313 313 313 313 313 314 314 314 312 311 312 313 314 315 315 315 315 315 315 315 315 315 315 315 315 315 315 315 315 315 315 315 315 315 315 315 315 315 315 315 315 315 315 314 314 314 314 314 314 314 314 314 314 316 318 319 320 322 324 324 322 319 320 322 324 326 328 326 324 326 327 325 325 325 325 324 323 324 326 327 327 326 326 326 325 326
314 314 314 315 314 312 311 310 308 308 312 313 313 313 313 313 314 315 315 313 312 312 313 314 315 315 316 316 316 316 316 316 316 316 316 315 315 315 315 315 315 315 315 315 315 315 315 315 315 315 315 315 315 315 315 315 314 314 314 314 315 314 314 314 315 318 320 321 323 324 324 323 322 324 327 328 328 327 324 325 328 328 329 329 326 326 327 327 327 326 325 326 327 326 326 325 325
313 313 313 313 314 312 310 310 308 307 311 313 311 312 313 313 314 315 315 314 313 314 314 314 315 316 316 316 316 316 316 316 315 316 316 315 316 315 315 315 315 315 315 315 315 315 315 315 315 315 315 315 315 315 315 315 315 315 314 315 315 315 315 315 315 316 317 317 318 318 320 322 325 328 329 329 330 329 327 328 331 329 330 331 328 325 325 326 328 328 327 325 325 325 325 324 323
313 314 313 313 313 312 310 309 308 307 311 313 311 312 314 314 314 315 316 315 315 315 314 314 314 315 315 315 315 315 315 316 315 315 315 315 315 315 315 315 314 314 314 314 314 315 315 315 316 316 316 315 315 315 315 315 315 315 315 315 315 315 315 316 316 315 316 316 316 317 319 322 325 327 328 328 329 328 327 329 331 331 331 331 330 326 322 321 325 327 328 327 326 325 325 324 323
314 314 313 313 314 313 311 311 309 306 308 311 312 313 315 315 314 314 314 312 312 312 312 312 312 313 314 314 314 314 315 315 315 315 315 314 314 314 314 314 314 314 314 313 313 313 314 315 315 315 315 315 315 316 316 315 315 315 315 315 315 315 315 315 316 316 316 316 316 317 319 320 322 323 324 324 324 325 326 327 327 328 331 331 331 329 323 321 324 326 327 327 328 327 326 325 324
314 316 315 314 314 313 313 312 309 308 307 308 311 313 314 315 314 314 312 308 308 309 309 310 310 311 312 312 313 313 314 314 314 314 314 314 314 314 314 314 314 314 314 313 313 313 313 314 315 315 315 315 315 315 315 315 315 315 315 315 315 315 315 316 316 316 316 316 317 317 318 319 320 321 322 323 326 329 330 330 326 324 328 330 329 325 321 324 329 328 327 328 328 327 326 325 325
314 315 315 315 314 313 313 312 311 312 312 310 311 312 313 315 315 314 312 310 310 309 308 310 310 311 311 312 312 312 312 313 313 313 313 314 313 313 313 314 314 314 314 314 313 313 313 314 314 315 315 315 315 315 316 315 315 316 315 315 315 315 316 316 316 316 316 316 317 318 319 319 321 323 324 326 329 330 329 329 327 325 327 326 324 321 322 327 330 329 328 328 326 324 324 324 323
313 314 315 314 314 316 315 314 314 314 312 310 309 311 312 314 315 315 313 312 313 311 310 311 312 313 313 313 313 313 313 313 313 313 313 313 313 313 314 314 314 314 314 314 313 313 313 313 313 314 315 315 315 316 315 316 316 316 316 315 315 316 316 316 316 316 317 317 317 318 319 319 321 322 323 324 326 326 326 325 324 324 323 322 321 320 322 325 325 326 327 327 326 324 324 324 324
314 314 314 314 315 319 318 316 315 313 312 311 311 313 312 312 315 315 311 312 313 313 312 313 313 313 313 313 313 313 313 313 313 313 313 313 313 313 314 314 314 314 314 314 314 313 313 313 313 313 314 314 315 315 315 316 316 316 316 316 316 316 316 316 316 316 317 317 317 317 318 318 319 320 321 321 322 322 322 321 321 323 324 326 325 321 320 323 325 327 326 324 323 323 325 324 323
315 310 311 314 315 317 317 315 313 311 311 312 313 313 311 311 315 314 310 311 314 314 313 314 314 313 312 313 312 310 311 313 313 313 312 312 313 314 314 314 314 314 314 314 314 314 314 313 314 314 314 314 315 315 315 316 316 316 316 316 316 316 316 316 316 316 316 316 316 316 316 316 317 317 318 318 319 319 319 320 321 323 325 327 325 321 321 325 327 326 323 321 321 323 324 322 320
311 307 310 313 313 314 315 314 312 311 311 313 313 311 310 311 316 315 311 311 314 314 313 313 313 311 311 313 312 311 310 311 312 312 312 313 314 315 315 315 315 315 315 315 315 315 315 315 314 315 315 315 315 315 316 316 316 316 316 316 316 316 316 316 316 316 315 315 315 315 315 315 315 315 316 316 317 317 318 319 320 321 322 322 322 321 322 324 324 321 321 323 324 325 325 322 321
309 310 313 313 313 313 312 311 311 311 312 312 309 308 309 310 314 317 313 312 312 313 313 313 313 312 311 312 313 313 312 312 313 313 314 315 315 315 316 316 316 316 316 316 316 316 316 316 316 316 316 316 316 316 316 316 316 316 316 316 316 316 316 316 315 315 315 315 315 315 315 315 314 314 315 315 315 316 316 317 318 319 319 320 321 321 322 323 323 323 323 323 323 322 323 323 323
310 314 314 313 313 312 312 311 311 313 313 309 305 305 308 309 313 315 312 311 310 312 314 313 313 313 311 311 313 314 315 315 315 315 315 316 316 316 316 316 316 316 316 316 316 316 316 316 316 316 316 316 316 316 316 316 316 316 316 316 316 316 316 316 316 315 315 315 315 315 314 314 314 314 314 314 314 314 315 315 316 316 317 317 318 319 320 321 322 323 323 322 321 320 319 320 320
311 314 313 313 313 312 313 313 312 313 311 306 304 306 308 310 312 312 310 311 310 310 313 313 312 312 311 311 313 313 314 315 315 315 315 315 315 315 315 315 315 316 316 316 316 316 316 316 316 316 316 316 316 316 316 316 316 316 316 316 316 316 316 316 316 315 315 315 315 315 314 314 314 314 314 313 313 314 314 314 314 315 315 315 316 316 316 317 317 318 318 318 318 317 316 316 316
312 314 314 313 314 313 313 312 310 310 309 305 304 306 309 311 312 312 312 311 309 309 310 311 311 311 310 311 313 313 313 314 314 314 314 314 315 315 315 315 315 315 315 316 316 316 316 316 316 316 316 316 316 316 316 316 316 316 316 316 316 316 316 316 315 315 315 315 315 314 314 314 314 314 314 313 313 313 313 314 314 314 314 314 314 314 314 315 315 315 314 314 314 315 315 315 314
313 316 315 313 314 314 313 312 311 311 309 306 304 307 311 312 311 311 311 309 308 308 309 309 309 310 310 310 313 313 313 314 314 314 314 314 315 315 315 315 315 315 316 316 316 316 316 315 316 315 315 315 315 315 315 316 315 315 315 315 316 316 316 316 316 315 315 315 315 315 314 314 314 314 314 313 313 313 313 313 313 313 313 313 313 313 313 313 313 313 313 313 313 313 313 313 313
311 311 312 312 314 313 309 307 308 308 308 308 307 309 312 312 311 310 308 307 308 308 308 309 310 310 309 310 313 314 313 314 314 314 314 314 315 315 315 315 315 315 315 315 315 315 315 315 315 315 315 315 315 315 315 315 315 315 315 315 315 315 315 315 315 315 315 315 314 314 314 314 314 314 314 313 313 313 313 313 313 313 313 313 313 313 313 313 312 312 312 312 312 312 312 312 312
311 310 310 311 312 314 310 305 304 305 309 311 309 311 312 311 311 311 309 310 311 309 308 308 310 311 309 310 313 314 313 314 314 314 314 314 315 315 315 315 315 315 315 315 315 315 315 315 315 315 315 315 315 315 315 315 315 315 315 315 315 315 315 315 315 315 315 315 315 314 314 314 314 314 314 313 313 313 313 313 313 313 313 313 313 313 312 312 312 312 312 312 312 311 311 311 311
311 312 311 309 310 312 311 309 307 307 310 311 309 310 311 309 311 312 310 312 313 311 309 308 308 310 309 310 313 314 314 314 314 314 314 314 315 315 315 315 315 315 315 315 315 315 315 315 315 315 315 315 315 315 315 315 315 315 315 315 315 315 315 315 315 315 315 315 315 314 314 313 313 313 313 313 313 313 313 313 313 313 313 313 313 313 313 312 312 312 312 312 312 311 311 311 311
310 311 311 310 311 311 309 310 311 310 310 311 309 307 308 310 311 311 311 312 313 312 310 309 308 309 309 310 313 314 314 314 313 314 314 314 314 315 315 315 315 315 315 315 315 315 315 315 315 315 315 315 315 315 315 315 315 315 315 315 315 315 315 315 315 314 314 314 314 314 314 314 313 313 313 313 313 313 313 313 313 313 313 313 313 313 313 312 312 312 312 312 312 312 311 311 311
307 308 308 310 312 312 310 310 310 311 310 311 310 307 308 311 312 311 312 312 312 312 312 310 310 310 310 311 314 314 313 314 313 313 314 314 314 315 314 315 315 315 315 315 315 314 314 314 314 314 314 314 314 314 314 314 314 315 314 315 315 315 314 314 314 314 314 314 314 314 314 314 313 313 313 313 313 313 313 313 312 312 312 312 312 312 312 312 312 312 312 312 312 312 312 311 311
308 308 309 310 310 309 310 309 308 310 310 309 310 309 310 312 310 311 312 311 311 312 313 313 311 310 310 312 314 314 313 313 314 314 314 314 314 315 314 314 314 314 314 314 314 314 314 314 314 314 314 314 314 314 314 314 314 314 314 314 314 314 314 314 314 314 314 314 314 314 314 314 313 313 313 313 313 313 313 313 313 313 313 313 313 313 312 312 312 312 312 312 312 312 312 312 311
311 310 310 312 311 310 311 311 308 308 308 308 309 309 311 313 310 310 310 309 308 309 312 313 310 309 311 313 313 313 313 314 314 314 315 314 314 314 314 314 314 314 314 314 314 314 314 314 314 314 314 314 314 314 314 314 314 314 314 314 314 314 314 314 314 314 314 314 314 313 313 313 313 313 313 313 313 313 312 312 312 312 312 312 312 312 312 312 312 312 312 312 312 312 311 311 311
Wind_Speed
3 3 2 2 2 3 2 2 1 2 1 1 2 1 3 2 2 3 6 5 3 5 5 3 10 13 6 1 3 4 4 2 3 2 3 10 19 22 19 18 19 18 17 16 15 13 12 12 12 11 8 5 5 6 8 9 11 11 11 12 11 11 11 11 10 11 13 13 13 12 10 9 9 10 9 7 7 7 7 8 10 11 11 11 13 13 13 13 13 13 13 13 13 13 13 14 14
3 3 3 4 3 2 1 2 2 1 2 2 2 0 3 3 3 5 8 5 3 7 9 6 10 14 5 4 4 4 1 2 3 6 9 18 23 22 20 19 20 19 17 15 16 14 12 12 12 10 7 5 5 6 8 10 11 11 11 12 12 11 11 11 10 11 13 13 12 11 9 8 9 9 9 8 8 9 10 11 12 12 12 12 13 13 14 15 14 13 13 13 12 12 13 13 14
4 4 5 5 3 2 2 0 2 2 2 2 3 2 4 5 5 4 6 4 5 10 11 8 10 11 5 4 3 3 1 2 6 14 16 23 23 22 21 19 21 19 17 16 16 14 12 12 11 9 6 5 5 6 8 10 11 11 11 12 12 12 10 11 11 12 13 12 12 10 8 7 7 8 9 8 9 10 11 12 12 13 13 12 13 13 13 14 13 13 12 12 12 12 12 13 14
5 6 7 6 3 2 1 1 1 2 2 1 2 4 5 5 5 5 6 6 9 11 8 10 8 8 7 4 1 2 2 4 8 16 20 24 21 21 21 20 21 20 18 16 16 14 12 12 11 9 6 5 5 6 8 10 10 11 11 12 12 12 11 11 12 13 14 12 12 10 8 7 7 7 8 8 9 10 11 12 12 12 11 11 13 13 12 12 12 12 12 12 11 11 12 13 13
6 7 8 6 3 1 1 0 0 2 0 1 1 4 5 3 5 7 7 8 12 9 6 10 5 6 8 4 3 2 3 5 9 17 22 23 22 22 21 21 21 20 18 17 17 13 12 13 11 9 6 5 5 6 7 9 10 10 10 11 12 12 12 11 12 13 13 12 12 11 7 7 8 7 7 7 8 9 10 12 12 11 11 11 12 12 11 12 12 12 12 12 11 11 12 12 12
7 8 7 5 3 2 1 1 1 2 2 2 1 3 3 4 6 10 10 10 10 7 7 9 3 4 5 4 5 2 5 6 8 17 22 23 23 22 21 21 20 19 18 18 17 13 12 13 11 10 7 6 6 6 7 9 10 10 10 10 11 11 11 11 11 12 12 12 11 10 7 6 8 8 8 8 9 10 11 12 12 11 11 11 12 11 11 12 12 12 12 11 11 11 11 11 11
9 7 5 6 4 1 2 1 1 1 3 2 2 4 2 6 8 12 12 9 6 4 8 8 4 4 2 3 4 4 8 9 11 18 22 23 23 22 21 21 20 19 17 18 16 13 13 13 12 10 8 7 6 6 7 8 10 10 10 10 10 10 10 11 11 11 12 12 10 9 7 6 8 8 8 9 10 10 11 12 11 11 11 11 11 11 11 12 12 12 12 11 11 10 10 10 10
10 5 3 4 2 1 1 0 1 1 2 1 2 2 2 5 9 12 12 7 5 5 6 8 7 5 2 3 2 4 9 11 17 21 23 24 24 22 21 21 20 19 17 17 16 14 15 13 12 11 9 7 6 6 6 7 9 10 10 10 10 10 10 10 11 10 10 10 9 8 7 8 8 7 8 9 10 10 11 11 11 11 11 11 10 11 12 12 12 11 11 10 11 10 9 9 9
9 4 3 3 1 1 1 1 0 1 0 1 2 2 1 5 8 9 11 5 4 5 5 7 8 4 2 5 2 4 9 13 20 23 24 24 24 23 21 21 19 20 18 17 17 15 15 14 12 11 9 7 6 6 6 7 8 10 10 11 10 10 10 10 10 10 9 9 10 9 8 9 9 8 8 9 10 10 11 11 11 11 11 11 11 11 12 11 11 10 10 10 10 10 8 8 8
6 3 3 2 2 2 1 1 1 1 1 1 2 2 2 8 9 6 9 6 4 5 5 9 7 3 3 5 3 5 10 15 23 24 24 24 24 23 21 20 19 20 19 18 18 17 16 14 12 11 10 8 7 6 6 6 7 8 10 11 10 10 10 10 10 9 9 9 10 10 9 10 10 9 10 10 10 11 12 12 12 12 12 11 12 12 12 11 11 10 10 10 9 9 7 7 7
3 2 4 2 3 3 2 1 1 1 1 2 2 2 5 10 9 5 7 4 5 4 6 10 5 5 5 3 3 6 11 17 24 24 24 24 23 23 21 20 19 19 18 18 18 18 17 15 13 12 11 9 8 7 6 5 6 7 8 9 9 10 9 9 9 9 9 9 9 10 10 10 10 9 10 11 11 12 12 12 12 12 13 12 12 12 12 12 12 11 10 10 9 8 7 7 7
2 1 3 3 3 1 1 1 1 1 1 3 3 4 8 11 9 7 8 4 6 4 6 9 3 5 5 2 5 7 12 18 23 23 24 24 23 23 21 20 20 19 18 18 18 19 18 16 14 12 11 10 9 8 6 5 5 5 6 7 8 9 9 9 9 9 9 8 9 9 9 10 9 9 10 11 11 12 12 12 13 13 13 12 12 12 13 13 12 11 11 10 10 8 7 7 7
3 2 3 3 1 1 2 0 1 1 1 4 3 7 11 11 7 7 9 5 6 5 6 10 4 4 4 2 5 8 13 19 23 23 23 24 23 22 21 20 20 19 18 17 18 19 19 17 15 14 12 11 9 8 7 6 5 5 5 5 6 7 7 8 8 8 8 8 8 8 9 9 9 9 9 10 11 12 11 12 12 13 13 12 13 13 13 12 12 11 11 11 10 8 7 7 6
5 3 1 2 1 0 1 0 1 2 2 4 4 11 13 8 5 6 8 6 6 4 4 9 6 3 4 2 5 10 14 19 23 23 23 24 23 22 21 20 19 19 19 18 19 19 19 18 16 15 13 11 9 8 8 7 6 6 5 4 5 5 5 6 6 7 7 7 8 8 8 8 9 8 8 9 10 11 10 10 11 11 12 12 12 12 12 11 11 11 12 11 10 8 7 6 5
7 5 2 3 2 1 2 0 1 2 2 5 6 13 11 5 7 7 7 6 4 5 3 7 8 2 2 3 5 12 15 19 24 23 24 24 23 23 21 20 19 19 19 19 19 20 20 19 18 15 14 13 11 9 8 7 7 6 5 4 4 4 4 4 5 5 5 6 7 7 7 7 8 7 7 8 8 9 9 9 9 9 10 10 10 11 11 10 11 11 11 11 11 9 7 5 5
8 5 2 3 2 1 2 1 1 2 3 4 9 14 9 4 7 7 6 5 2 6 6 5 10 5 2 2 3 12 15 18 24 23 24 24 23 23 21 21 20 19 19 19 20 20 20 19 18 17 15 15 13 11 9 8 7 6 6 5 5 4 3 2 2 3 4 4 5 5 6 6 6 6 6 5 6 7 7 7 6 7 8 8 8 9 9 9 10 10 10 11 11 9 7 5 3
9 4 2 3 2 2 3 4 3 1 3 5 9 13 8 5 7 6 5 6 3 5 7 7 11 9 5 3 4 11 16 18 24 24 24 25 24 24 23 23 21 21 21 20 21 21 21 20 19 18 17 16 14 13 11 10 9 7 6 6 6 6 5 4 2 1 2 2 3 3 4 4 5 4 4 3 3 4 5 4 4 5 5 6 6 6 7 7 8 9 10 10 10 9 7 5 3
7 3 3 4 3 2 4 5 4 1 3 7 10 13 8 6 9 7 4 5 5 5 8 10 10 10 8 5 4 10 16 19 24 26 25 26 26 26 25 25 24 23 22 22 22 22 21 21 19 19 18 17 15 14 13 12 11 9 8 7 7 7 7 6 4 3 2 1 0 1 1 2 3 3 3 2 2 2 3 2 2 2 2 3 3 3 4 5 6 8 8 9 10 9 7 6 4
4 1 3 4 3 2 3 4 5 1 3 6 9 12 9 5 9 9 5 3 4 6 7 10 11 11 11 7 5 10 16 18 24 27 26 27 27 27 27 26 25 25 24 23 23 22 22 21 20 20 19 18 17 15 14 14 12 11 10 9 8 8 8 8 7 6 5 4 3 2 2 2 2 2 3 3 3 2 2 1 1 1 1 1 2 2 3 4 4 5 6 8 8 8 7 6 4
2 3 4 4 4 3 3 4 5 3 4 5 7 11 8 5 10 9 5 3 4 8 7 9 11 13 14 11 7 9 15 18 22 26 26 26 26 27 27 27 26 25 25 24 23 23 22 22 21 20 19 19 18 17 15 15 14 13 12 11 10 9 9 9 9 8 8 7 6 5 5 4 4 3 3 3 4 4 3 3 3 4 3 3 3 2 3 3 3 4 5 6 6 7 6 5 4
3 4 2 4 7 3 6 7 5 6 4 4 7 10 7 7 11 9 6 4 5 9 10 11 12 12 14 15 12 10 14 18 21 25 27 26 26 26 26 25 25 24 24 25 24 24 23 22 22 21 20 20 19 18 17 16 15 14 13 13 12 11 11 10 10 10 10 9 8 8 8 7 6 5 5 5 5 5 5 5 5 6 5 5 5 5 5 5 4 4 4 4 4 5 5 5 4
4 2 3 5 8 3 7 10 6 7 6 6 9 9 7 9 9 9 9 6 3 3 6 9 12 12 13 14 15 13 14 18 21 23 25 26 26 26 25 24 23 23 25 26 25 24 24 23 22 22 21 21 20 19 18 17 16 16 15 15 14 13 13 13 12 12 11 11 10 10 9 9 9 8 7 7 7 6 7 7 7 7 7 6 6 7 7 7 6 6 6 5 4 3 4 4 4
4 2 1 6 6 2 9 11 8 8 8 9 10 8 8 9 6 8 12 10 6 3 3 3 6 11 13 13 15 16 15 16 19 20 22 23 24 24 24 24 23 23 25 26 26 25 25 24 23 23 22 21 20 20 19 19 18 17 17 16 16 15 15 14 14 13 13 12 12 11 11 11 11 10 10 9 9 8 8 8 8 8 8 8 7 8 8 8 8 7 7 7 6 5 4 4 4
3 3 4 6 5 5 10 10 7 9 10 10 11 8 7 8 5 7 13 14 13 11 7 4 2 3 9 13 14 15 16 15 16 18 20 21 22 22 23 23 23 23 25 26 26 26 25 24 24 23 23 22 21 20 20 19 18 18 19 17 17 17 16 16 15 15 14 14 13 13 12 12 12 12 12 11 11 10 10 9 9 9 9 9 9 9 9 9 9 8 8 8 8 7 6 6 6
3 3 6 6 6 7 9 8 8 9 10 11 11 7 5 8 5 5 12 14 14 15 14 12 10 5 6 10 13 15 16 16 16 19 21 21 21 21 22 23 22 22 24 25 25 25 25 24 24 24 24 23 22 22 21 20 19 19 20 18 18 19 18 17 17 17 16 15 15 15 14 14 13 14 13 13 13 12 12 11 11 11 10 10 10 10 10 10 9 9 9 9 9 9 8 8 8
3 5 8 8 6 7 8 8 9 9 10 11 9 5 3 6 4 7 14 14 13 14 15 15 15 14 12 10 12 14 16 16 16 18 20 21 21 21 21 21 21 22 22 22 23 23 23 24 24 24 24 23 23 23 22 21 21 20 20 20 19 19 19 18 18 18 18 18 17 16 16 15 15 15 15 15 15 15 14 14 13 13 12 11 11 11 11 11 11 10 10 10 10 10 10 10 10
7 10 9 9 7 7 6 7 9 9 10 10 7 4 3 5 3 5 8 9 11 13 15 17 16 16 16 14 13 13 16 17 17 17 19 21 21 19 19 19 20 19 19 20 22 22 22 23 23 24 23 23 23 24 24 23 23 22 21 21 20 20 19 19 20 20 19 19 19 18 17 17 16 17 17 17 17 17 16 16 15 14 13 13 12 12 12 12 12 12 11 11 11 11 10 11 12
14 15 11 8 7 7 5 6 9 6 6 7 6 4 3 4 3 5 6 7 8 8 10 14 17 17 15 16 15 14 15 18 19 18 19 19 18 17 17 18 18 17 18 19 20 21 21 21 22 22 23 23 23 23 24 24 24 23 22 22 22 21 19 19 20 21 20 20 20 20 19 19 19 18 18 18 18 19 19 18 17 16 16 15 14 14 14 14 14 14 13 13 13 13 12 12 12
15 11 7 4 3 5 3 2 5 3 3 7 7 3 4 6 8 8 8 10 9 9 7 8 13 17 16 16 17 16 15 17 20 19 17 17 16 16 16 16 16 16 17 18 19 20 20 20 20 21 22 22 22 22 22 23 23 23 23 22 22 22 21 21 21 21 21 21 21 21 20 20 20 20 20 19 19 20 21 20 20 19 18 17 17 16 16 16 16 15 15 15 16 15 14 13 13
10 3 1 4 5 3 2 2 2 3 4 8 5 3 5 7 9 9 9 10 11 11 10 9 10 13 16 17 17 17 16 17 19 19 17 17 17 16 16 16 17 17 18 19 19 19 19 19 19 19 20 20 20 20 21 21 21 22 22 22 22 22 23 22 22 23 23 22 22 21 22 22 22 21 21 20 20 21 22 22 22 21 19 18 19 19 18 18 18 17 16 17 18 16 15 15 15
5 3 1 2 5 3 3 2 1 3 5 7 5 5 4 3 5 7 10 11 11 10 9 11 11 11 15 17 19 19 18 17 17 18 19 19 18 18 18 17 17 18 19 19 19 19 19 19 19 19 19 19 19 19 20 20 20 21 21 21 22 22 23 24 23 23 24 24 24 23 22 23 24 23 23 22 22 23 23 24 25 24 22 19 18 20 20 19 19 19 18 19 20 19 19 19 18
2 4 4 2 3 2 2 2 1 1 3 5 5 5 5 2 2 4 8 10 11 12 11 12 13 13 14 15 18 20 20 19 18 18 19 19 20 19 18 18 18 19 19 19 19 20 20 20 20 19 19 19 19 19 20 20 20 20 20 21 21 22 23 24 24 24 24 25 26 25 24 24 24 24 24 24 25 26 26 26 25 24 23 20 19 20 20 21 21 21 20 21 21 21 21 21 21
1 3 4 4 4 3 2 1 2 2 1 4 4 3 2 1 1 3 6 7 7 9 10 12 14 15 16 16 17 19 21 21 21 21 21 20 21 20 19 19 19 20 20 20 21 21 21 21 21 21 20 20 20 20 20 20 20 20 20 21 22 23 23 23 23 22 23 24 25 25 25 25 25 24 22 22 24 25 26 26 23 21 21 20 20 21 22 23 22 22 22 21 22 22 23 24 24
3 2 1 2 3 4 3 2 1 2 1 5 4 4 4 1 3 4 6 6 4 7 9 9 10 12 15 16 17 19 20 21 23 24 23 22 22 21 21 21 21 21 21 22 22 22 22 22 23 22 22 22 22 21 21 21 20 20 21 21 22 22 23 23 23 22 22 22 22 24 25 25 24 23 22 22 23 22 22 22 22 23 24 21 20 22 25 27 25 23 22 22 22 23 25 26 26
8 6 3 2 2 3 3 2 2 1 2 5 4 5 9 7 6 7 7 8 10 12 12 12 12 13 12 14 17 19 21 22 22 22 22 23 23 23 23 22 22 22 23 22 22 23 23 23 23 23 23 23 23 23 23 23 22 22 23 22 22 22 23 23 23 23 23 22 22 23 25 25 25 23 22 22 22 24 22 20 21 24 24 23 23 24 24 26 27 26 26 26 24 25 27 28 30
9 7 4 5 4 3 2 2 1 1 4 7 7 8 10 10 10 10 10 11 12 14 17 18 18 18 17 17 18 20 21 22 21 18 19 21 23 23 23 23 23 23 24 23 23 24 23 23 23 23 23 23 24 24 24 25 24 24 24 24 23 23 23 23 23 22 21 20 21 22 22 24 24 22 20 21 21 24 23 20 21 22 21 22 25 26 24 22 24 28 30 29 27 29 31 31 32
6 5 3 3 4 3 1 2 1 1 4 6 6 7 9 11 11 11 11 10 11 14 17 21 22 22 22 22 22 22 22 22 20 18 17 19 21 22 23 23 23 24 24 24 24 24 24 24 24 24 23 23 24 24 25 25 24 24 24 24 23 22 22 23 23 23 21 21 22 23 22 23 24 24 24 24 23 24 23 20 22 24 25 25 23 25 27 26 26 27 28 30 30 32 32 33 33
5 5 5 3 2 2 1 1 1 1 3 3 1 6 10 12 12 12 11 9 12 14 15 18 21 22 23 23 24 24 23 23 22 21 20 20 21 23 24 24 24 24 24 25 25 25 25 25 25 24 24 24 24 24 24 24 23 23 23 22 21 21 21 21 21 22 22 22 22 22 22 22 25 27 27 27 27 28 26 25 26 27 31 30 23 22 27 30 30 29 27 28 31 32 33 32 32
4 3 4 3 2 3 2 1 2 1 3 1 1 4 9 11 11 12 12 11 14 17 16 16 18 20 23 24 24 24 24 24 24 23 22 23 24 26 27 27 26 26 26 26 26 27 27 26 26 25 25 24 24 24 24 23 22 22 21 21 21 20 20 20 19 19 20 21 20 20 20 21 23 25 27 27 28 29 28 29 29 28 33 34 26 23 26 29 31 31 30 30 32 33 34 34 33
3 2 4 3 2 2 2 4 3 0 1 1 1 4 8 8 8 10 10 11 15 19 21 20 20 22 25 26 26 27 27 27 26 25 24 25 26 27 28 28 28 27 27 26 26 27 28 28 27 26 25 25 24 24 23 23 22 22 21 21 20 20 20 19 19 19 20 20 20 21 21 22 22 24 25 25 25 26 26 27 28 28 30 32 31 29 29 30 31 32 32 32 33 35 36 37 35
1 3 4 2 4 4 1 4 4 2 1 1 2 5 6 4 5 7 4 4 9 13 14 15 16 18 21 23 25 27 28 28 28 26 24 26 27 28 29 29 28 27 27 26 25 25 25 26 26 26 26 25 25 24 23 23 24 23 22 21 20 20 19 18 19 19 18 19 20 20 20 20 21 22 22 22 22 23 24 27 30 30 29 32 35 33 31 32 34 37 36 34 34 35 35 36 35
3 5 5 2 6 6 3 6 5 3 3 0 2 5 3 1 3 5 0 2 4 4 5 8 8 9 13 16 19 21 22 23 23 21 20 22 25 26 27 28 27 27 27 26 25 24 24 25 26 26 26 25 25 24 23 23 23 23 21 20 19 18 18 18 18 16 16 17 17 17 17 18 19 19 20 23 25 27 29 30 31 31 33 36 37 34 33 34 35 36 36 33 33 33 33 35 36
3 3 3 3 5 7 7 7 4 2 2 1 1 5 3 1 3 2 1 4 5 3 3 4 4 5 7 11 14 16 18 18 17 16 18 20 21 22 22 23 23 24 24 23 23 23 25 25 25 25 25 24 24 22 22 22 21 20 19 18 18 18 18 18 16 15 15 16 16 16 17 17 18 19 20 22 25 28 30 30 28 29 32 32 32 33 34 32 31 31 32 32 32 33 35 37 39
2 0 2 5 8 8 8 7 2 0 0 1 0 2 3 4 3 1 1 4 7 4 2 1 2 3 4 7 11 13 15 15 15 16 17 18 17 16 16 16 17 18 18 17 18 19 21 22 22 22 22 21 21 20 19 18 17 17 16 16 17 17 17 16 15 15 16 17 17 17 18 18 18 20 21 22 23 25 26 25 24 25 27 27 30 32 29 28 29 30 31 32 32 34 35 37 38
0 1 1 4 5 5 5 4 2 1 1 3 2 1 4 5 2 1 1 4 7 4 3 1 2 3 4 3 5 8 11 13 15 16 17 17 15 13 12 12 12 13 13 13 14 14 15 15 15 16 16 16 16 15 14 13 13 14 14 14 15 15 15 15 15 16 16 17 18 17 17 18 18 18 20 21 22 23 23 22 21 24 26 28 30 30 26 26 28 29 31 32 33 35 35 35 36
3 5 5 5 4 5 3 2 3 2 3 5 3 1 4 5 2 2 1 2 6 3 3 2 2 4 5 5 2 2 6 10 14 16 16 16 14 13 12 12 12 12 12 12 12 12 12 12 12 12 12 12 11 11 10 10 10 11 11 12 12 12 12 14 15 15 16 16 16 16 16 16 17 18 19 19 21 21 22 22 22 23 24 26 28 27 27 29 29 30 32 33 34 34 35 36 37
10 7 6 7 4 3 2 2 1 2 4 2 2 2 3 4 3 3 2 2 2 3 5 4 3 4 6 7 7 6 8 11 14 16 17 16 14 14 14 14 14 13 14 13 13 13 13 13 12 12 11 11 10 10 9 9 8 8 9 9 9 10 11 13 14 15 15 15 15 16 16 16 17 18 18 19 20 20 21 21 22 23 24 25 26 27 28 31 31 32 34 36 37 36 37 38 37
6 3 5 6 2 1 2 1 0 5 4 1 2 3 3 5 3 1 0 1 1 2 6 7 7 6 6 7 8 10 13 15 18 19 19 19 18 18 18 18 18 18 18 18 17 17 16 15 15 13 13 11 10 9 7 6 6 5 5 6 7 8 10 12 14 15 16 16 17 17 17 17 18 18 18 19 19 19 20 22 22 23 24 25 26 27 29 31 33 34 36 39 40 40 40 40 39
1 4 7 5 3 2 3 3 2 5 2 2 1 2 3 7 6 4 5 3 3 6 6 6 6 5 6 7 8 11 16 19 21 22 22 23 23 23 23 22 23 22 22 22 21 20 19 17 16 14 13 11 9 8 5 4 2 0 2 4 5 7 9 11 13 15 16 17 17 18 19 19 19 18 18 18 18 19 20 22 23 24 25 26 27 28 29 30 32 34 36 37 38 39 40 39 41
5 7 7 5 5 4 5 3 1 3 0 2 1 1 3 5 5 7 9 4 4 7 8 5 4 3 3 6 8 12 17 20 23 25 25 26 26 26 26 26 25 25 24 23 21 20 19 17 15 13 12 10 8 6 5 4 3 3 3 5 6 7 9 10 11 13 15 17 18 19 20 20 20 19 18 18 17 18 20 21 22 23 24 25 26 27 28 29 31 32 34 34 35 37 37 38 39
3 1 2 4 4 4 4 3 2 2 2 2 1 2 4 3 0 2 4 2 4 8 9 9 7 4 1 5 10 13 18 22 24 26 27 28 27 27 27 26 26 24 23 22 20 19 17 15 13 11 10 8 6 5 4 4 4 4 4 5 6 7 8 9 10 11 13 15 18 20 21 21 20 20 19 18 17 18 19 19 20 21 22 23 24 25 25 26 28 29 30 31 32 33 35 36 37
1 1 0 2 2 2 2 1 0 1 1 2 3 3 4 2 3 2 1 3 6 9 10 11 11 8 2 6 12 15 20 23 25 27 28 27 27 26 26 25 24 23 21 19 17 16 14 12 10 9 7 6 5 4 4 4 4 4 5 6 6 7 8 9 10 10 11 13 15 18 20 20 20 19 18 18 17 17 17 17 18 19 19 20 21 21 22 23 24 25 26 28 29 30 32 33 34
2 2 3 2 1 3 4 1 1 1 3 2 3 4 3 3 5 2 2 2 3 5 8 10 12 10 5 8 15 18 22 24 25 27 27 26 25 24 24 23 21 20 18 16 15 13 11 10 8 7 5 5 4 3 3 4 4 5 6 6 7 7 8 9 9 10 11 12 13 15 17 18 18 18 18 17 17 17 16 16 16 16 17 18 19 19 20 21 22 23 24 25 26 27 29 30 31
2 3 5 3 1 1 2 1 1 1 4 1 2 5 4 3 3 1 3 3 4 5 6 7 9 9 7 12 18 22 24 25 26 27 26 24 23 22 21 20 19 17 16 14 13 11 9 8 6 5 4 3 2 2 3 4 5 6 6 7 7 8 8 9 9 10 11 12 13 14 15 16 17 17 17 17 17 17 17 16 16 16 17 18 19 20 21 21 22 23 23 24 25 26 28 28 29
1 2 4 3 2 2 2 2 2 2 4 2 2 3 4 5 4 1 3 7 7 7 6 5 7 10 12 17 22 25 26 27 26 26 25 22 21 20 20 18 17 16 14 13 11 10 8 6 4 3 2 1 1 2 3 5 6 7 8 8 9 9 9 10 10 10 10 11 12 13 13 14 14 15 15 15 16 17 17 17 17 17 18 18 20 21 22 22 23 23 24 25 25 26 28 29 29
2 2 3 0 2 2 2 2 2 3 3 2 2 1 3 6 5 5 7 8 9 9 6 5 9 14 18 22 27 28 28 28 27 25 24 21 20 19 18 17 16 14 13 11 10 8 7 5 3 2 0 1 2 4 5 6 7 8 9 10 10 10 10 9 9 9 9 10 11 12 12 12 12 12 12 13 13 14 14 15 15 15 16 17 18 19 21 22 22 23 24 24 25 26 28 30 30
3 4 5 3 1 1 1 1 1 1 3 3 3 3 3 3 4 8 8 4 5 8 7 6 10 17 22 26 29 30 29 28 26 25 23 21 20 18 17 16 14 13 11 10 8 6 5 3 1 1 1 3 4 5 6 7 7 8 10 10 9 9 8 7 8 8 8 9 9 10 10 10 11 11 11 11 11 12 12 12 13 13 14 15 16 17 18 20 20 21 22 23 24 25 27 29 29
2 3 5 6 4 3 3 4 1 0 2 2 1 4 4 1 2 6 4 2 2 6 6 6 12 19 24 28 31 31 30 28 26 25 23 21 20 18 17 15 13 12 10 8 7 5 3 2 1 2 3 4 5 6 7 7 8 8 8 8 6 6 6 6 7 7 7 7 8 8 8 9 9 10 11 11 11 12 12 12 12 13 13 14 15 16 17 18 19 20 21 21 23 24 26 27 28
Wind_Direction
146 141 146 185 167 138 91 314 244 82 268 182 102 156 136 99 41 173 160 158 154 153 173 126 154 165 159 302 281 325 338 336 358 352 91 136 151 154 158 162 166 166 165 158 152 151 146 136 135 139 136 121 83 66 52 48 53 57 66 75 81 86 94 100 98 101 105 102 101 99 89 83 80 73 67 73 81 90 99 99 97 90 87 85 91 91 86 82 78 76 76 78 81 82 81 84 86
140 144 160 175 165 181 142 322 271 155 231 171 133 43 109 138 190 188 165 155 102 149 172 149 161 177 196 307 264 262 281 21 65 95 119 144 150 153 158 163 168 167 166 160 152 149 147 144 140 142 140 120 90 75 59 54 58 60 67 74 80 87 95 98 96 102 106 103 100 99 96 85 72 63 61 64 73 86 88 88 92 91 88 84 86 88 88 85 78 77 75 76 82 85 85 86 87
141 153 173 168 142 126 118 259 270 197 222 160 129 112 127 178 189 159 137 110 98 150 164 157 170 182 222 283 216 254 98 108 125 123 135 148 151 156 156 163 167 166 166 159 153 148 148 150 144 144 142 121 94 77 62 59 61 62 69 72 76 83 90 96 99 103 106 106 102 99 98 89 76 65 63 66 78 86 85 87 92 93 91 88 89 87 87 84 78 78 77 78 82 87 90 90 92
146 166 177 164 144 121 113 244 293 248 228 140 102 128 170 201 163 114 101 108 130 145 150 160 172 190 222 286 239 279 132 152 143 135 144 151 156 157 154 162 164 163 164 159 154 147 151 155 145 144 140 120 96 80 67 63 65 64 69 74 74 78 85 93 101 106 107 105 101 95 92 83 77 74 67 70 82 87 87 90 94 98 96 92 93 91 88 81 77 80 78 80 83 89 92 93 94
156 177 177 166 181 130 84 178 120 257 283 74 60 123 190 207 136 118 114 128 135 132 144 166 171 196 215 278 268 275 135 161 160 149 150 155 158 156 155 160 161 161 161 158 154 147 155 157 146 143 137 125 105 86 74 65 67 67 70 78 78 77 82 88 97 107 110 111 105 99 97 85 72 70 72 76 83 86 90 92 91 94 94 90 91 90 86 77 76 78 76 78 83 90 92 95 96
163 173 167 153 141 111 174 191 199 237 45 355 357 81 179 180 134 125 127 130 133 131 148 172 183 179 205 245 228 213 157 163 171 160 155 158 159 157 158 160 162 161 160 158 154 150 158 159 149 142 137 133 114 94 80 72 70 70 74 80 83 83 85 89 95 101 108 111 110 109 109 88 71 69 75 85 89 86 88 90 90 88 88 88 88 85 80 73 74 76 75 76 83 92 96 100 100
164 161 151 140 100 71 231 222 256 236 60 349 356 43 123 151 141 133 140 145 147 153 161 184 202 176 192 193 198 204 180 163 168 166 158 159 159 159 161 162 164 163 161 161 156 155 162 162 152 144 144 142 124 108 93 82 76 73 76 82 87 88 88 90 92 98 108 112 114 117 112 89 81 80 80 89 91 87 88 92 93 89 87 89 89 89 82 75 75 75 74 75 82 94 99 102 103
169 163 169 157 84 358 231 222 266 343 59 331 317 348 56 144 157 149 153 156 160 170 179 194 199 207 191 152 175 195 183 165 166 165 159 159 160 161 163 164 165 165 164 165 163 161 165 164 158 151 152 152 137 121 107 92 81 76 76 81 86 87 86 83 84 90 99 105 108 107 98 85 79 85 90 95 93 89 92 94 93 99 103 96 90 88 82 77 76 74 72 71 78 91 98 100 101
175 174 174 167 143 141 137 243 183 7 195 239 257 256 324 169 173 165 159 142 146 163 181 189 190 211 151 158 178 168 177 168 164 163 161 160 162 164 164 167 168 167 167 170 170 164 166 167 163 157 158 161 149 133 118 101 85 79 74 76 79 81 82 79 79 80 82 85 87 86 82 76 74 88 101 102 96 91 94 93 90 97 103 93 84 81 79 77 73 70 68 68 72 84 93 93 95
181 184 152 144 170 187 191 199 133 140 186 225 253 232 190 174 178 178 161 139 144 163 182 182 188 218 168 167 168 171 181 169 164 164 164 164 165 166 166 169 171 172 171 174 174 168 170 170 167 161 163 167 158 145 128 111 94 84 77 75 76 79 81 78 78 76 77 76 77 78 74 73 75 86 98 101 96 91 89 90 89 88 90 86 82 80 78 74 69 66 65 68 72 80 86 87 91
185 180 158 165 179 205 196 161 130 125 150 227 235 199 174 168 170 168 160 143 154 164 176 183 196 200 186 177 176 188 185 172 168 167 166 167 168 167 168 171 173 176 176 177 176 173 172 170 171 167 167 171 166 156 140 128 112 99 89 83 80 81 81 80 79 77 78 76 76 76 74 76 78 83 92 97 95 90 86 86 87 86 85 84 82 79 76 73 68 66 64 68 74 80 87 90 95
194 154 180 186 178 216 161 121 125 91 176 177 145 160 165 163 169 172 174 159 166 185 183 190 198 177 179 168 191 193 183 176 171 170 169 169 171 170 170 174 176 179 181 182 179 177 176 171 174 173 173 174 169 163 153 149 139 127 111 98 90 86 84 83 82 80 81 81 80 79 79 81 83 86 90 97 96 92 88 86 86 85 85 85 84 79 75 71 67 66 64 65 70 77 86 94 102
213 177 195 164 126 15 133 113 163 259 193 145 112 155 160 163 183 176 174 164 170 190 190 194 193 187 194 133 187 186 180 179 173 172 172 171 173 174 173 176 179 182 184 186 185 182 179 175 178 179 179 177 173 172 166 163 163 159 139 118 104 91 85 83 81 81 82 82 82 80 81 83 86 87 91 97 97 93 88 84 84 85 86 85 82 78 73 70 67 66 64 63 65 73 83 94 106
197 171 191 135 101 207 161 334 168 228 158 120 106 155 160 169 193 166 172 188 187 193 193 195 193 200 211 174 176 181 182 181 176 173 175 174 175 177 177 179 183 186 186 187 188 188 184 181 181 182 182 180 180 184 179 174 172 172 165 143 123 104 91 83 79 78 79 80 82 82 82 84 85 87 91 95 95 94 89 85 85 84 83 81 78 75 71 67 64 61 61 61 61 66 78 95 110
181 142 86 121 139 180 194 342 162 237 129 129 141 157 163 173 180 167 187 206 199 209 204 197 198 201 232 205 164 179 188 182 177 175 176 177 177 180 180 182 187 190 190 189 189 191 191 188 185 185 185 181 182 188 189 187 179 175 181 173 156 136 115 97 85 80 77 79 83 85 86 86 88 90 92 93 95 95 94 92 91 87 83 79 76 73 69 63 58 55 54 55 57 59 68 90 114
174 136 95 134 154 207 186 165 214 219 115 132 152 159 164 167 174 171 199 211 210 217 208 201 206 221 297 235 169 180 186 180 179 178 178 180 179 182 184 186 190 193 194 192 191 193 195 195 192 192 191 188 184 183 188 196 193 184 186 190 189 178 163 148 110 91 80 78 79 84 88 89 92 95 98 98 97 96 98 100 94 90 85 79 74 69 65 59 53 50 48 50 52 54 58 69 100
167 153 169 151 170 210 175 175 192 156 112 140 162 169 167 154 174 179 198 204 209 216 211 218 215 226 248 209 188 183 182 179 181 180 180 182 183 185 187 191 193 195 197 196 195 194 197 200 199 200 199 198 193 186 187 195 201 196 194 200 202 202 201 197 183 146 94 80 73 78 88 92 97 103 110 112 106 100 101 97 87 84 80 75 70 62 57 53 48 44 43 45 48 50 53 59 70
170 180 178 167 173 167 168 176 177 83 119 157 175 184 177 154 173 178 178 192 212 229 225 231 226 226 229 208 196 188 184 181 183 184 184 186 188 190 191 194 197 199 201 201 199 198 199 202 204 205 205 206 203 198 194 195 201 198 198 209 212 212 213 215 215 211 203 189 132 85 102 111 120 128 141 154 161 134 116 106 78 70 68 67 64 51 39 38 39 36 35 38 43 45 47 57 63
158 165 184 185 162 126 164 165 166 148 94 144 175 185 182 157 165 176 185 172 198 231 229 228 232 228 220 208 196 190 188 186 187 190 190 191 193 195 197 198 200 202 204 206 205 203 203 204 206 208 209 209 210 209 204 203 205 200 199 207 216 220 220 222 224 223 223 222 227 235 231 212 190 178 184 200 219 221 194 193 233 276 309 339 24 25 5 13 22 24 25 27 34 39 38 48 59
149 179 195 174 146 117 170 163 166 176 103 133 173 179 184 164 163 175 188 164 201 233 229 217 226 227 220 211 203 196 193 191 191 194 196 197 199 201 203 204 205 205 208 210 210 210 208 208 209 211 211 212 213 214 212 213 214 211 207 207 213 223 226 226 229 229 228 227 228 232 237 236 231 222 215 223 236 247 247 240 247 257 273 292 312 318 318 333 345 355 4 10 21 28 27 31 40
161 186 210 138 154 146 168 172 172 186 164 149 161 168 185 178 174 173 168 183 220 236 239 233 230 227 224 217 213 209 200 197 195 197 201 203 204 206 208 209 210 209 211 213 214 214 214 213 213 214 214 215 217 217 216 219 221 221 217 215 216 222 228 230 232 233 233 233 233 233 238 241 242 241 235 235 241 252 258 257 257 260 268 277 288 292 290 298 310 322 330 341 358 11 9 11 15
150 193 351 123 161 158 167 183 182 180 169 153 156 164 181 176 181 181 180 208 215 216 242 246 243 237 234 225 220 218 208 204 202 202 204 206 209 209 211 212 211 212 214 216 216 217 218 218 217 217 218 219 221 221 221 222 223 226 225 223 224 225 228 232 234 235 237 237 239 239 240 244 246 248 247 245 246 251 258 263 264 265 270 272 276 280 281 287 294 298 304 311 318 333 341 345 346
173 184 38 139 159 141 158 178 185 176 161 155 167 172 174 172 187 197 202 224 220 206 232 238 244 238 235 229 226 224 218 212 210 210 209 209 212 214 215 215 215 215 217 218 218 220 220 220 221 221 222 222 225 225 226 226 224 227 229 227 227 230 231 234 237 238 240 241 242 243 243 247 249 251 252 251 250 252 256 260 264 266 268 269 270 273 275 279 283 286 290 294 298 302 306 312 319
212 155 152 146 123 131 154 170 182 181 171 166 174 171 171 184 194 203 218 232 230 231 231 222 233 231 228 226 227 229 227 226 221 218 215 214 216 218 219 220 220 219 220 220 220 221 221 222 223 223 224 225 227 228 229 229 227 228 231 229 228 232 232 234 239 240 242 242 244 246 245 247 249 252 254 255 255 254 256 257 259 263 265 266 266 269 271 274 277 279 282 285 287 289 290 291 294
243 146 152 144 110 132 148 158 163 169 172 166 167 162 172 199 207 224 232 236 235 238 239 240 245 248 239 227 226 229 229 230 226 222 218 218 219 220 222 223 224 223 222 221 221 222 222 223 224 225 227 228 230 231 232 232 231 231 234 233 230 232 233 234 238 240 243 243 245 246 248 249 251 254 256 257 258 258 259 259 258 260 263 265 264 266 269 272 273 274 276 278 280 280 281 281 280
199 140 145 143 116 126 132 143 153 153 158 157 155 146 162 191 217 250 244 244 241 240 242 244 245 246 247 241 233 229 230 230 228 225 221 220 221 221 222 223 225 225 224 223 223 224 223 223 225 227 228 230 233 234 236 236 235 234 235 237 234 233 234 235 238 239 241 244 245 247 248 250 252 255 258 259 261 261 262 262 261 260 262 264 265 267 268 269 269 270 272 271 272 273 275 277 275
148 127 117 121 115 123 130 142 148 143 148 161 157 135 144 165 202 247 234 235 234 233 239 241 241 242 242 242 241 234 231 230 228 228 224 223 222 220 220 221 222 222 223 224 225 226 225 225 226 228 229 231 233 236 239 240 240 238 237 239 240 240 236 236 239 240 241 243 245 246 248 250 252 254 256 259 261 262 265 265 263 262 262 265 267 269 270 271 269 267 268 267 266 265 269 274 274
138 130 106 95 104 112 112 136 146 140 146 169 154 125 130 144 202 237 212 199 202 211 228 234 235 236 236 237 238 238 234 229 228 227 226 223 222 221 218 218 219 218 220 222 225 228 227 227 227 229 231 232 233 236 239 241 242 242 241 240 242 245 244 240 241 243 243 244 246 246 247 249 250 253 256 260 262 264 267 267 266 265 265 266 267 267 267 269 270 268 267 268 267 263 263 269 275
138 136 117 109 129 116 75 111 162 170 156 155 144 158 192 190 213 224 216 211 209 220 232 233 232 230 232 234 234 237 236 231 228 227 225 223 222 223 221 222 225 224 224 225 227 229 229 229 229 230 231 233 234 236 239 241 243 244 244 243 243 246 249 247 246 247 248 247 247 247 248 249 249 251 254 257 261 264 266 268 269 269 271 271 269 267 267 267 268 268 268 271 271 267 266 270 275
140 141 142 138 177 175 49 359 200 183 162 154 157 240 220 204 218 217 215 219 223 238 243 239 235 228 228 231 232 234 236 233 230 227 226 224 224 224 224 226 228 231 232 232 232 232 232 232 232 233 233 235 236 236 239 242 243 245 246 248 248 249 251 252 250 250 252 252 251 248 247 249 249 249 251 255 258 262 265 267 267 269 272 272 271 269 267 268 269 267 266 270 272 270 269 269 270
135 142 204 159 192 182 65 16 246 183 171 168 188 245 239 183 198 223 230 225 225 236 237 233 235 233 230 230 230 231 233 235 231 228 227 226 226 225 225 226 228 231 234 235 236 237 238 237 237 239 239 239 240 240 241 243 246 248 249 251 252 252 252 254 254 252 253 255 256 255 251 249 249 248 249 250 253 257 261 263 262 263 264 265 270 269 265 267 269 267 263 264 267 268 269 266 264
111 166 181 191 213 181 84 39 329 227 172 181 204 237 250 217 169 221 232 224 226 237 242 239 235 234 235 233 232 230 231 234 233 230 227 225 225 223 224 226 228 231 232 234 237 238 240 241 242 242 243 244 244 244 243 245 247 248 250 253 255 256 254 255 257 256 256 256 258 260 258 255 252 249 248 247 249 251 255 259 260 263 264 264 269 267 262 263 265 268 266 261 262 264 268 267 262
202 225 179 169 200 185 157 114 359 332 161 200 232 261 257 189 160 192 196 198 215 237 248 248 241 238 239 238 236 233 230 232 233 230 227 226 225 225 227 230 231 232 233 234 236 237 239 241 243 243 244 245 246 247 246 246 248 249 251 251 253 255 256 256 256 255 255 257 260 262 263 262 259 256 253 252 253 253 254 255 256 263 265 266 271 269 263 260 261 268 267 261 261 261 265 268 265
172 230 176 175 208 189 178 147 72 339 235 213 227 258 252 185 153 180 178 189 232 258 259 256 247 241 239 240 239 235 232 232 234 232 231 231 232 233 235 234 233 233 232 233 234 236 237 239 240 241 243 246 248 249 249 250 252 253 253 252 252 252 254 257 254 249 248 250 255 261 265 267 265 261 257 255 259 264 264 259 254 257 259 260 269 273 269 262 257 262 262 257 259 261 264 267 266
180 190 177 168 218 228 214 151 140 179 221 219 207 238 255 249 235 234 227 241 266 272 268 262 254 250 245 241 239 238 238 238 238 237 235 235 235 235 235 234 232 232 232 232 233 234 234 236 238 238 239 241 244 247 248 250 250 251 253 253 253 253 255 256 254 251 251 253 257 260 261 264 266 264 260 258 262 265 267 269 261 258 261 262 266 271 270 263 258 260 261 258 261 265 267 268 268
189 183 168 158 167 218 243 90 76 207 202 216 218 232 255 256 253 256 254 257 265 268 270 267 260 258 256 250 244 242 243 245 244 241 237 235 234 232 232 232 231 230 230 230 231 232 232 234 236 236 236 238 241 243 244 246 247 248 250 252 253 254 257 258 258 257 257 259 261 259 254 257 265 270 270 267 267 263 262 267 262 255 259 262 264 267 266 262 262 265 264 263 266 269 271 272 271
173 159 169 170 165 184 162 95 50 320 217 218 227 247 263 264 262 262 262 265 261 255 260 263 261 259 258 255 251 247 246 247 246 242 235 231 230 229 228 229 230 230 231 231 230 231 231 232 234 234 236 238 239 241 243 244 246 248 250 253 256 257 258 257 256 255 255 255 254 253 252 256 267 273 274 270 268 265 262 265 263 259 260 258 261 269 265 261 264 266 264 263 266 269 272 274 274
158 174 181 193 210 168 97 118 87 46 237 209 202 257 259 258 261 262 257 258 255 247 244 253 258 258 256 254 253 252 250 248 245 241 236 233 231 230 231 233 235 235 235 234 234 233 233 233 234 235 236 238 239 241 243 244 245 248 250 253 256 258 258 258 257 255 255 255 253 252 252 253 258 261 264 266 266 268 268 268 267 264 264 259 259 270 265 262 265 265 263 261 263 267 270 272 273
150 176 178 193 201 135 117 166 110 68 244 203 145 258 261 255 259 259 247 242 251 252 247 248 252 254 255 254 254 254 251 249 246 241 237 237 237 237 239 240 241 240 239 238 236 235 234 234 234 235 236 237 239 240 242 243 244 246 248 250 252 253 255 257 259 258 256 257 256 254 254 251 249 249 252 256 258 261 263 263 263 265 268 260 257 270 269 264 265 264 263 262 263 266 268 270 272
153 163 178 184 161 170 197 170 156 60 312 288 242 269 272 257 253 253 240 239 251 256 256 256 255 256 257 256 256 256 253 251 249 247 244 242 242 242 243 243 242 241 240 239 237 235 234 234 234 234 236 236 238 239 240 241 242 243 244 246 248 250 252 252 253 254 254 257 256 255 255 252 250 248 248 251 255 259 260 262 260 261 266 260 257 269 269 264 264 262 261 262 264 268 271 272 273
212 205 192 161 168 205 327 123 146 166 179 297 284 270 267 245 245 247 231 240 252 256 261 262 259 258 257 257 256 255 255 254 253 252 250 246 244 243 242 243 243 241 240 238 235 233 232 231 231 232 233 234 235 236 236 237 238 239 240 242 245 248 251 252 252 254 255 256 256 255 257 255 254 254 254 257 262 264 261 263 263 258 259 259 260 266 265 264 269 268 264 264 267 272 276 277 275
212 223 212 206 179 167 112 134 156 189 197 120 323 262 249 117 241 238 259 340 263 251 264 268 264 258 257 257 256 254 254 252 251 249 242 238 237 236 238 239 240 240 239 236 232 229 228 228 228 229 230 231 232 232 233 235 236 238 240 242 246 251 254 256 258 260 258 255 253 253 254 253 253 255 254 251 250 252 254 258 261 258 256 257 259 261 260 265 273 272 268 265 268 274 276 274 273
206 214 188 165 158 140 138 164 183 217 200 77 325 259 251 296 260 219 41 312 279 260 254 272 282 278 269 263 259 256 254 250 244 236 227 225 227 229 233 233 234 235 234 232 229 227 227 228 229 229 230 230 230 231 232 234 237 238 242 245 249 254 258 261 261 259 255 252 250 247 245 244 244 246 247 243 242 246 251 254 254 254 255 257 259 258 258 263 268 270 269 267 271 277 274 270 271
193 193 140 140 145 145 155 169 185 315 106 126 303 292 274 273 264 118 39 283 268 243 205 289 344 330 303 278 268 259 253 247 235 226 221 219 221 223 226 224 222 222 221 220 219 221 224 226 228 228 228 228 228 229 231 233 237 239 242 246 250 254 259 263 261 257 255 253 252 250 248 247 243 243 244 244 244 244 247 251 251 253 258 262 264 260 258 263 267 269 271 271 273 276 275 273 275
207 25 97 127 131 129 145 155 122 50 267 214 164 41 265 258 242 102 29 272 254 220 156 106 49 31 10 330 281 260 245 231 218 215 212 207 207 208 206 204 200 200 201 202 204 208 210 212 214 215 216 217 217 220 224 228 233 237 242 247 252 257 261 263 262 259 257 256 257 257 256 256 252 249 247 246 247 247 248 252 251 252 254 257 261 259 257 264 268 269 270 272 272 271 274 278 278
137 145 106 87 79 76 93 127 114 109 253 228 151 80 257 259 241 185 87 260 248 209 128 111 93 66 50 55 53 206 201 198 195 194 191 188 188 186 182 181 180 179 180 180 180 182 184 185 189 191 193 196 200 205 212 218 225 230 237 244 248 252 254 256 258 258 258 259 260 260 260 260 257 254 252 249 249 250 250 252 252 252 252 254 259 260 260 263 266 267 268 271 272 270 272 276 277
137 148 114 93 73 57 64 36 81 187 242 222 84 7 275 267 248 202 197 236 230 155 138 145 131 98 72 72 86 116 142 156 163 164 165 166 165 162 160 159 158 157 156 157 157 159 162 165 167 168 170 173 178 184 191 199 209 216 225 235 240 244 249 255 259 261 262 262 262 262 261 260 258 256 255 253 252 252 253 253 253 253 253 253 256 258 259 261 263 265 266 268 270 269 269 271 273
138 159 135 112 90 91 111 74 200 226 230 103 40 339 254 238 239 174 255 267 232 181 150 144 139 118 87 85 99 115 128 136 140 143 145 147 146 144 143 143 143 142 142 143 145 146 147 148 149 149 151 154 158 163 170 177 192 208 226 244 251 255 261 267 270 270 270 268 267 268 268 265 262 259 257 255 254 253 253 252 252 252 252 251 251 252 253 254 256 258 260 263 265 266 266 266 268
186 164 156 149 141 165 199 189 208 233 233 54 358 313 238 244 261 277 271 250 235 229 180 145 140 127 96 97 113 122 128 132 133 135 136 136 137 136 137 137 137 137 137 138 139 138 138 137 137 137 136 136 135 135 135 133 129 354 308 299 291 285 283 281 279 278 276 275 275 275 274 272 267 263 260 258 255 253 252 252 252 252 253 253 253 253 252 251 253 255 257 259 262 264 265 265 265
189 166 167 174 154 172 203 184 242 257 252 48 311 296 252 257 272 260 253 228 211 228 216 213 209 168 100 110 132 132 133 133 132 133 132 132 132 133 134 134 134 134 134 133 133 131 130 128 126 124 121 119 116 109 98 81 55 23 358 335 319 307 299 292 289 287 285 283 281 280 278 277 275 271 266 262 259 256 255 255 255 256 257 257 257 258 257 256 256 258 260 261 262 263 264 266 267
190 156 159 187 173 194 202 182 217 219 101 95 188 240 226 221 80 242 254 255 246 244 237 240 234 224 118 125 147 144 137 136 134 133 132 131 132 132 132 133 133 132 131 130 129 127 126 123 120 118 115 110 103 92 77 60 40 20 2 344 331 321 312 306 301 296 293 291 288 285 283 281 280 278 273 268 263 261 260 259 260 260 261 262 262 263 263 262 261 262 264 266 266 266 266 267 268
189 22 111 217 192 143 117 82 161 106 71 159 186 244 246 262 288 255 248 270 255 248 244 243 239 240 226 141 155 153 143 140 138 135 134 133 134 134 134 133 132 131 130 129 128 125 122 119 116 113 106 98 84 67 50 32 14 359 349 341 337 330 321 313 308 304 302 301 299 294 288 284 281 278 275 272 267 264 264 264 265 265 266 267 267 266 266 266 265 266 267 268 269 268 267 268 268
154 159 184 204 59 101 114 112 57 32 259 197 170 250 263 280 277 245 138 201 219 216 229 236 238 241 218 155 159 157 149 145 141 138 137 136 136 136 135 134 133 132 131 129 127 124 121 118 113 105 92 77 60 37 15 356 343 334 329 327 325 320 314 311 308 309 312 313 311 305 296 288 281 276 273 272 272 271 269 269 271 273 274 274 273 272 271 271 270 270 271 272 273 271 270 270 270
142 181 168 141 55 66 123 175 104 176 249 216 171 241 251 232 247 83 114 182 196 185 196 214 223 224 197 164 162 159 153 149 146 143 141 139 139 139 138 138 137 135 134 132 129 127 124 118 108 100 85 63 36 359 334 319 313 310 307 307 306 304 304 306 308 312 316 318 317 315 311 301 290 282 278 275 275 275 275 276 277 277 278 278 279 278 276 276 274 276 278 278 278 277 275 276 276
15 181 143 129 203 200 176 189 170 194 232 240 207 241 259 223 214 163 163 191 202 196 187 190 196 194 180 165 161 160 156 153 150 147 146 146 146 146 144 142 141 139 137 134 131 128 126 120 108 101 89 41 328 308 297 290 289 290 290 289 291 295 298 303 309 315 319 322 321 322 322 318 309 300 294 288 285 284 283 284 283 283 282 281 281 281 280 280 278 280 282 282 283 283 281 282 283
38 129 136 11 281 207 188 166 179 213 214 231 231 207 235 219 207 215 207 198 198 193 185 189 189 186 180 168 162 161 158 155 154 153 154 156 154 151 148 145 143 140 137 134 130 127 124 122 117 114 116 279 276 276 268 269 275 276 279 281 284 290 295 300 306 313 321 324 324 326 328 328 325 320 316 312 307 304 302 300 299 297 294 291 289 288 287 287 287 288 289 289 289 287 285 287 286
149 164 168 185 159 55 250 163 91 238 206 212 239 239 233 206 196 212 212 195 189 190 185 187 189 186 179 170 165 163 160 158 157 158 160 160 158 155 152 148 144 141 137 134 129 124 125 127 129 186 272 270 264 265 261 262 266 266 271 276 279 283 287 296 304 313 324 325 323 327 330 330 329 327 327 327 324 321 319 316 314 310 305 302 299 297 296 296 296 297 296 296 295 292 291 292 291
162 186 185 183 158 135 192 200 152 310 241 210 229 264 258 167 183 216 203 123 186 207 203 183 182 181 173 168 166 163 162 162 162 162 162 161 160 158 154 150 147 144 140 138 138 137 144 149 191 250 269 270 264 264 261 258 258 259 264 270 276 286 295 306 315 320 325 324 322 326 330 331 330 329 329 330 329 329 328 327 325 320 315 312 309 307 306 306 305 305 304 303 301 299 298 298 297